Adriatic Id — VRFP6 — position and weather

sailwx.info

Track history (hours):
 
Tides and Currents Weather Stations Pressure Air Temp Water Temp Dewpoint Dewpoint Depression Visibility Wind Speed Wind Dir Waves Ship Positions

Adriatic Id

Last reported at 2014-Jul-30 03:23 UTC. Time now 2014-Jul-30 13:10 UTC.
Position N 33°36' W 008°28'.

Length 158 m; draft 7.9 m.

Type: Cargo ship. MMSI: 477559800.

Date/timePositionNaut miles runAvg speedWind from/ knotsBaromVisibWave heightAir tempDewpointWater temp
2014-Jul-30 03:23N 33°36' W 008°28'1814.0
2014-Jul-30 02:07N 33°49' W 008°14'49710.0
2014-Jul-28 00:23N 36°50' E 001°14'5313.8
2014-Jul-27 20:33N 36°57' E 002°19'1413.9
2014-Jul-27 19:33N 37°00' E 002°36'1413.8
2014-Jul-27 18:33N 37°01' E 002°54'13513.5
2014-Jul-27 08:33N 37°21' E 005°41'2713.7
2014-Jul-27 06:33N 37°26' E 006°15'9913.3
2014-Jul-26 23:07N 37°40' E 008°19'913.5
2014-Jul-26 22:26N 37°41' E 008°30'1213.2
2014-Jul-26 21:33N 37°43' E 008°45'1312.6
2014-Jul-26 20:33N 37°44' E 009°01'1312.4
2014-Jul-26 19:32N 37°43' E 009°17'1312.4
2014-Jul-26 18:31N 37°42' E 009°32'1412.5
2014-Jul-26 17:25N 37°41' E 009°50'1112.3
2014-Jul-26 16:29N 37°40' E 010°04'11713.1
2014-Jul-26 07:33N 37°01' E 012°23'1713.2
2014-Jul-26 06:17N 36°56' E 012°43'1013.9
2014-Jul-26 05:33N 36°53' E 012°55'1413.8
2014-Jul-26 04:33N 36°48' E 013°11'1413.8
2014-Jul-26 03:33N 36°43' E 013°27'1414.0
2014-Jul-26 02:34N 36°39' E 013°44'1413.8
2014-Jul-26 01:33N 36°35' E 014°00'1413.9
2014-Jul-26 00:33N 36°30' E 014°17'1413.6
2014-Jul-25 23:34N 36°26' E 014°33'1313.1
2014-Jul-25 22:33N 36°24' E 014°49'1313.3
2014-Jul-25 21:34N 36°24' E 015°05'1313.0
2014-Jul-25 20:34N 36°23' E 015°21'40212.4
2014-Jul-24 12:14N 36°43' E 023°41'1113.7
2014-Jul-24 11:27N 36°53' E 023°48'14013.8
2014-Jul-24 01:17N 38°55' E 025°14'1113.6
2014-Jul-24 00:28N 39°05' E 025°21'4213.8
2014-Jul-23 21:24N 39°43' E 025°45'6511.0
2014-Jul-23 15:31N 40°27' E 026°47'9613.2
2014-Jul-23 08:14N 40°55' E 028°49'4 4.9
2014-Jul-23 07:29N 40°55' E 028°54'5 5.1
2014-Jul-23 06:33N 40°58' E 028°58'25 4.1
2014-Jul-23 00:16N 41°24' E 029°03'  
Track history (hours):
 
Tides and Currents Weather Stations Pressure Air Temp Water Temp Dewpoint Dewpoint Depression Visibility Wind Speed Wind Dir Waves Ship Positions

Adriatic Id

Last reported at 2014-Jul-30 03:23 UTC. Time now 2014-Jul-30 13:10 UTC.
Position N 33°36' W 008°28'.

Length 158 m; draft 7.9 m.

Type: Cargo ship. MMSI: 477559800.

Date/timePositionNaut miles runAvg speedWind from/ knotsBaromVisibWave heightAir tempDewpointWater temp
2014-Jul-30 03:23N 33°36' W 008°28'1814.0
2014-Jul-30 02:07N 33°49' W 008°14'49710.0
2014-Jul-28 00:23N 36°50' E 001°14'5313.8
2014-Jul-27 20:33N 36°57' E 002°19'1413.9
2014-Jul-27 19:33N 37°00' E 002°36'1413.8
2014-Jul-27 18:33N 37°01' E 002°54'13513.5
2014-Jul-27 08:33N 37°21' E 005°41'2713.7
2014-Jul-27 06:33N 37°26' E 006°15'9913.3
2014-Jul-26 23:07N 37°40' E 008°19'913.5
2014-Jul-26 22:26N 37°41' E 008°30'1213.2
2014-Jul-26 21:33N 37°43' E 008°45'1312.6
2014-Jul-26 20:33N 37°44' E 009°01'1312.4
2014-Jul-26 19:32N 37°43' E 009°17'1312.4
2014-Jul-26 18:31N 37°42' E 009°32'1412.5
2014-Jul-26 17:25N 37°41' E 009°50'1112.3
2014-Jul-26 16:29N 37°40' E 010°04'11713.1
2014-Jul-26 07:33N 37°01' E 012°23'1713.2
2014-Jul-26 06:17N 36°56' E 012°43'1013.9
2014-Jul-26 05:33N 36°53' E 012°55'1413.8
2014-Jul-26 04:33N 36°48' E 013°11'1413.8
2014-Jul-26 03:33N 36°43' E 013°27'1414.0
2014-Jul-26 02:34N 36°39' E 013°44'1413.8
2014-Jul-26 01:33N 36°35' E 014°00'1413.9
2014-Jul-26 00:33N 36°30' E 014°17'1413.6
2014-Jul-25 23:34N 36°26' E 014°33'1313.1
2014-Jul-25 22:33N 36°24' E 014°49'1313.3
2014-Jul-25 21:34N 36°24' E 015°05'1313.0
2014-Jul-25 20:34N 36°23' E 015°21'40212.4
2014-Jul-24 12:14N 36°43' E 023°41'1113.7
2014-Jul-24 11:27N 36°53' E 023°48'14013.8
2014-Jul-24 01:17N 38°55' E 025°14'1113.6
2014-Jul-24 00:28N 39°05' E 025°21'4213.8
2014-Jul-23 21:24N 39°43' E 025°45'6511.0
2014-Jul-23 15:31N 40°27' E 026°47'9613.2
2014-Jul-23 08:14N 40°55' E 028°49'4 4.9
2014-Jul-23 07:29N 40°55' E 028°54'5 5.1
2014-Jul-23 06:33N 40°58' E 028°58'25 4.1
2014-Jul-23 00:16N 41°24' E 029°03'  

Dump ship's entire track history